Simultaneous Nadir Overpasses (SNOs) Predictions

Prediction of SNOs between AQUA and NOAA-19 Satellite Orbit:

Table of predicted SNOs for the next 14.0 days since TLE Epoch: 12/3/2022
Index Date (AQUA) Time (AQUA) Lat,Lon (AQUA) SZA (AQUA ) Date (NOAA-19) Time (NOAA-19) Lat,Lon (NOAA-19) SZA (NOAA-19 ) Distance(km) Time Diff (sec)
1 12/04/2022 01:52:13 77.01, 138.78 99.36 12/04/2022 01:51:38 77.02, 138.74 99.38 1.19 35
2 12/04/2022 02:41:39 -77.05, -53.71 80.60 12/04/2022 02:42:40 -77.06, -53.83 80.59 3.21 61
3 12/06/2022 07:25:06 -77.02,-124.46 80.34 12/06/2022 07:24:28 -77.01,-124.44 80.35 1.90 38
4 12/06/2022 08:14:33 77.06, 43.05 99.71 12/06/2022 08:15:23 77.05, 43.02 99.70 1.19 50
5 12/08/2022 12:57:59 77.01, -27.60 99.90 12/08/2022 12:57:10 77.01, -27.52 99.92 2.11 49
6 12/08/2022 13:47:25 -77.04, 139.94 80.06 12/08/2022 13:48:13 -77.06, 139.91 80.05 2.40 48
7 12/10/2022 18:30:51 -76.99, 69.24 79.89 12/10/2022 18:30:01 -76.99, 69.26 79.89 0.34 50
8 12/10/2022 19:20:18 77.04,-123.28 100.16 12/10/2022 19:20:55 77.04,-123.27 100.16 0.18 37
9 12/13/2022 00:03:43 76.97, 166.13 100.27 12/13/2022 00:02:42 76.99, 166.16 100.30 2.52 61
10 12/13/2022 00:53:10 -77.04, -26.49 79.66 12/13/2022 00:53:46 -77.03, -26.44 79.67 1.56 36
11 12/15/2022 05:36:35 -76.99, -97.12 79.58 12/15/2022 05:35:34 -76.96, -97.14 79.59 3.32 61



Historial Predications of SNOs between AQUA and NOAA-19
